This is the latest recevied weather packets stored in our database for station/object OZ1IEP-5. If no packets are shown the sender has not sent any weather packets the latest 10 day(s).
| Time | Temp. | Humidity | Pressure | Rain* | Wind** | Luminosity | Snow |
|---|---|---|---|---|---|---|---|
| 1778186406 | 7.78° C | 81% | 1017.8 hPa | 0 mm | - | 0 W/m² | - |
| 1778185808 | 7.78° C | 81% | 1017.7 hPa | 0 mm | - | 0 W/m² | - |
| 1778185206 | 7.78° C | 79% | 1017.6 hPa | 0 mm | - | 0 W/m² | - |
| 1778184606 | 8.33° C | 78% | 1017.5 hPa | 0 mm | - | 0 W/m² | - |
| 1778184008 | 8.33° C | 77% | 1017.4 hPa | 0 mm | - | 0 W/m² | - |
| 1778183406 | 8.33° C | 76% | 1017.3 hPa | 0 mm | - | 0 W/m² | - |
| 1778182806 | 8.89° C | 76% | 1017.2 hPa | 0 mm | - | 0 W/m² | - |
| 1778182209 | 8.89° C | 75% | 1017.2 hPa | 0 mm | - | 0 W/m² | - |
| 1778181606 | 9.44° C | 74% | 1017 hPa | 0 mm | - | 0 W/m² | - |
| 1778181006 | 9.44° C | 72% | 1016.9 hPa | 0 mm | - | 0 W/m² | - |
| 1778180416 | 9.44° C | 70% | 1016.8 hPa | 0 mm | - | 5 W/m² | - |
| 1778179805 | 10° C | 68% | 1016.7 hPa | 0 mm | - | 7 W/m² | - |
| 1778179206 | 10.56° C | 67% | 1016.7 hPa | 0 mm | - | 12 W/m² | - |
| 1778178607 | 11.11° C | 66% | 1016.7 hPa | 0 mm | - | 16 W/m² | - |
| 1778178006 | 11.67° C | 64% | 1016.7 hPa | 0 mm | - | 18 W/m² | - |
| 1778177405 | 11.67° C | 63% | 1016.7 hPa | 0 mm | - | 23 W/m² | - |
| 1778176807 | 11.67° C | 63% | 1016.6 hPa | 0 mm | - | 39 W/m² | - |
| 1778176205 | 11.67° C | 62% | 1016.6 hPa | 0 mm | - | 93 W/m² | - |
| 1778175606 | 12.22° C | 62% | 1016.4 hPa | 0 mm | - | 118 W/m² | - |
| 1778175008 | 12.22° C | 61% | 1016.3 hPa | 0 mm | - | 46 W/m² | - |
| 1778174405 | 12.22° C | 62% | 1016.2 hPa | 0 mm | - | 60 W/m² | - |
| 1778173806 | 12.22° C | 61% | 1016.2 hPa | 0 mm | - | 49 W/m² | - |
| 1778173207 | 12.22° C | 60% | 1016.2 hPa | 0 mm | - | 74 W/m² | - |
| 1778172606 | 12.78° C | 60% | 1016.2 hPa | 0 mm | - | 62 W/m² | - |
| 1778172006 | 12.78° C | 59% | 1016.1 hPa | 0 mm | - | 53 W/m² | - |
* Rain latest hour (hover to see other rain measurements)
** Current wind speed in m/s (hover to see current wind gust speed)